Powrót do katalogu

COSMOS 886 DEB

AktywnyLEO
NORAD 9823·DEBRIS·🇷🇺 Russia

Wystrzelony Dec 27, 1976 z Baikonur Cosmodrome

Loading…

Następne Przeloty (najbliższe 24 godziny)

TLE

ŚwieżeSource: Space-Track

Epoka: Sep 14, 2026, 09:49 UTC

1 09823U 76126AK  26257.40928485  .00000576  00000-0  28152-3 0  9995
2 09823  65.7983 310.4790 0910399 340.9676  15.9276 13.00549807326673

Śledź COSMOS 886 DEB w czasie rzeczywistym z AllMySat

Download on the App Store